Stations météo

réclame
Mon MeteoGroup
Cabauw Tower, Pays-Bas (6348): Température de l'air & dewpoint: 11.01.2019 02:00:00 - 17.01.2019 02:00:00 (CET)Cabauw Tower, Pays-Bas (6348): Température de l'air 5cm: 11.01.2019 02:00:00 - 17.01.2019 02:00:00 (CET)Cabauw Tower, Pays-Bas (6348): Vitesse du vent & gusts: 11.01.2019 02:00:00 - 17.01.2019 02:00:00 (CET)Cabauw Tower, Pays-Bas (6348): Direction du vent: 11.01.2019 02:00:00 - 17.01.2019 02:00:00 (CET)Cabauw Tower, Pays-Bas (6348): reduced air pressure: 11.01.2019 02:00:00 - 17.01.2019 02:00:00 (CET)Cabauw Tower, Pays-Bas (6348): visibility: 11.01.2019 02:00:00 - 17.01.2019 02:00:00 (CET)Cabauw Tower, Pays-Bas (6348): Quantités de précipitations: 11.01.2019 02:00:00 - 17.01.2019 02:00:00 (CET)
Date & Time tt [°C] td [°C] tt 5cm [°C] ff [km/h] ff [knt] fx [km/h] fx [knt] dd ppp [hPa] vv [km] rr [mm]
17.01.2019 02:00:00 - - - - - - - - - - -
17.01.2019 01:00:00 3,9 3,2 3,4 11 6 14 8 SSW 1001,2 48 0,1
17.01.2019 00:00:00 4,6 3,9 4,3 11 6 36 19 WNW 1001,6 27 0,4
16.01.2019 23:00:00 5,7 4,9 5,4 29 16 47 25 SW 1000,7 6 0,9
16.01.2019 22:00:00 5,7 4,4 5,3 32 18 43 23 SSW 1000,3 13 0,1
16.01.2019 21:00:00 5,2 4,2 4,9 32 18 43 23 SSW 1000,8 3,9 0,3
16.01.2019 20:00:00 5,3 3,9 4,9 29 16 40 21 SSW 1001,5 12 0,6
16.01.2019 19:00:00 5,1 3,4 4,8 25 14 40 21 SSW 1002,3 11 0,1
16.01.2019 18:00:00 5,5 3,1 5,2 25 14 40 21 SSW 1003,0 26 0,0
16.01.2019 17:00:00 5,8 3,3 5,5 25 14 40 21 SSW 1003,6 25 0,0
16.01.2019 16:00:00 6,0 3,5 5,7 29 16 43 23 SSW 1004,4 21 0,0
16.01.2019 15:00:00 6,1 3,9 5,9 25 14 43 23 SSW 1005,2 17 0,0
16.01.2019 14:00:00 6,3 3,7 6,2 32 18 43 23 SSW 1006,1 21 0,0
16.01.2019 13:00:00 6,4 4,4 6,6 29 16 43 23 SSW 1007,1 16 0,0
16.01.2019 12:00:00 6,3 3,9 6,0 32 18 47 25 SW 1008,3 22 0,0
16.01.2019 11:00:00 6,3 4,3 6,1 32 18 54 29 SSW 1008,9 24 0,0
16.01.2019 10:00:00 5,9 4,6 5,6 32 18 43 23 SW 1009,5 10 0,0
16.01.2019 09:00:00 5,9 5,1 5,7 25 14 47 25 SSW 1009,7 7 0,0
16.01.2019 08:00:00 6,2 5,5 6,0 29 16 40 21 SW 1009,8 6 0,0
16.01.2019 07:00:00 6,6 5,7 6,3 29 16 47 25 SW 1010,1 12 0,0
16.01.2019 06:00:00 6,7 6,1 6,5 29 16 43 23 SW 1010,6 4,2 0,0
16.01.2019 05:00:00 7,0 6,3 6,7 25 14 36 19 SW 1011,3 7 0,0
16.01.2019 04:00:00 7,1 6,4 7,0 25 14 40 21 SW 1012,1 4,7 0,0
16.01.2019 03:00:00 7,4 6,0 7,1 25 14 40 21 SW 1012,5 15 0,0
16.01.2019 02:00:00 7,5 5,4 6,8 25 14 36 19 SW 1012,8 35 0,0
16.01.2019 01:00:00 7,1 5,4 6,7 25 14 32 18 SW 1013,3 32 0,0
16.01.2019 00:00:00 7,1 5,3 6,7 25 14 32 18 SW 1013,8 43 0,0
15.01.2019 23:00:00 7,3 5,4 6,7 22 12 36 19 SW 1014,4 36 0,0
15.01.2019 22:00:00 7,2 5,6 6,9 22 12 32 18 SW 1014,8 26 0,0
15.01.2019 21:00:00 7,2 5,7 6,9 22 12 36 19 SW 1015,2 24 0,0
15.01.2019 20:00:00 7,5 5,8 7,1 25 14 36 19 WSW 1015,3 20 0,0
15.01.2019 19:00:00 7,4 5,4 6,9 22 12 29 16 WSW 1015,7 28 0,0
15.01.2019 18:00:00 7,5 5,4 7,0 22 12 36 19 WSW 1015,7 24 0,0
15.01.2019 17:00:00 7,6 5,5 7,2 29 16 40 21 WSW 1015,8 23 0,0
15.01.2019 16:00:00 8,0 5,6 7,7 25 14 36 19 WSW 1015,9 26 0,0
15.01.2019 15:00:00 7,7 6,1 7,8 22 12 40 21 SW 1016,1 21 0,0
15.01.2019 14:00:00 7,2 5,6 7,1 29 16 40 21 SW 1016,3 17 0,0
15.01.2019 13:00:00 6,8 5,4 6,5 29 16 40 21 WSW 1017,0 17 0,0
15.01.2019 12:00:00 6,7 5,6 6,7 25 14 36 19 SW 1017,5 10 0,0
15.01.2019 11:00:00 6,3 5,3 6,2 25 14 36 19 SW 1017,6 13 0,0
15.01.2019 10:00:00 5,9 4,9 5,4 25 14 36 19 SW 1017,9 15 0,0
15.01.2019 09:00:00 5,3 4,7 4,7 22 12 29 16 SW 1018,0 11 0,0
15.01.2019 08:00:00 4,3 3,9 3,5 22 12 29 16 SW 1017,9 8 0,0
15.01.2019 07:00:00 4,2 3,7 3,7 22 12 25 14 SW 1018,3 7 0,0
15.01.2019 06:00:00 4,3 3,7 3,8 18 10 29 16 SW 1018,9 8 0,0
15.01.2019 05:00:00 3,5 2,9 2,6 14 8 22 12 SW 1019,0 9 0,0
15.01.2019 04:00:00 2,8 2,3 1,6 18 10 22 12 SW 1019,6 27 0,0
15.01.2019 03:00:00 1,5 1,0 0,0 14 8 18 10 SW 1020,1 22 0,0
15.01.2019 02:00:00 1,4 0,6 0,3 14 8 18 10 SW 1020,4 22 0,0
15.01.2019 01:00:00 1,0 0,1 -0,9 11 6 14 8 SW 1020,3 24 0,0
15.01.2019 00:00:00 -0,6 -1,4 -2,8 11 6 14 8 SW 1020,5 19 0,0
14.01.2019 23:00:00 -0,4 -1,2 -2,3 7 4 11 6 SSW 1020,7 23 0,0
14.01.2019 22:00:00 1,3 0,1 -1,2 4 2 22 12 NW 1020,7 26 0,0
14.01.2019 21:00:00 3,2 0,5 1,2 11 6 18 10 WNW 1020,5 34 0,0
14.01.2019 20:00:00 1,8 0,5 -0,3 7 4 14 8 W 1020,3 22 0,0
14.01.2019 19:00:00 3,0 0,8 1,3 11 6 22 12 NW 1019,8 29 0,0
14.01.2019 18:00:00 2,8 1,0 1,4 7 4 25 14 WNW 1019,2 25 0,0
14.01.2019 17:00:00 3,9 1,2 2,6 18 10 43 23 WNW 1018,7 37 0,0
14.01.2019 16:00:00 4,8 2,2 4,5 32 18 47 25 NW 1018,2 12 0,0
14.01.2019 15:00:00 5,6 1,6 4,4 22 12 50 27 NW 1017,1 30 0,2
14.01.2019 14:00:00 5,5 2,1 5,8 32 18 58 31 NW 1016,6 15 0,1
14.01.2019 13:00:00 5,8 2,5 5,3 29 16 54 29 NNW 1016,3 33 0,1
14.01.2019 12:00:00 5,7 2,8 4,6 18 10 43 23 NW 1015,6 38 0,1
14.01.2019 11:00:00 5,3 3,1 4,8 18 10 36 19 NNW 1015,0 28 0,0
14.01.2019 10:00:00 5,0 2,7 4,0 18 10 29 16 NNW 1014,2 30 0,6
14.01.2019 09:00:00 4,5 3,8 3,3 7 4 25 14 NNW 1013,1 17 0,0
14.01.2019 08:00:00 5,5 4,2 4,5 18 10 36 19 NNW 1011,6 25 0,1
14.01.2019 07:00:00 6,5 4,7 5,1 22 12 47 25 NW 1010,5 20 0,3
14.01.2019 06:00:00 6,8 4,5 5,9 18 10 29 16 WNW 1009,7 21 0,0
14.01.2019 05:00:00 6,5 4,2 5,6 25 14 40 21 WNW 1009,1 29 0,3
14.01.2019 04:00:00 6,4 4,5 5,9 29 16 54 29 NW 1008,8 9 0,5
14.01.2019 03:00:00 7,6 4,4 6,7 25 14 50 27 WNW 1007,9 15 0,0
14.01.2019 02:00:00 8,2 4,4 7,6 32 18 50 27 WNW 1007,1 16 0,0
14.01.2019 01:00:00 8,3 4,7 7,4 29 16 50 27 WNW 1006,5 15 0,0
14.01.2019 00:00:00 8,2 4,6 7,4 29 16 43 23 WNW 1005,9 15 0,0
13.01.2019 23:00:00 8,4 4,9 7,6 25 14 43 23 WNW 1005,4 14 0,0
13.01.2019 22:00:00 8,3 4,7 7,2 29 16 47 25 NW 1005,0 14 0,0
13.01.2019 21:00:00 8,6 5,5 7,5 29 16 50 27 WNW 1004,3 15 0,0
13.01.2019 20:00:00 9,0 5,8 7,9 29 16 58 31 WNW 1003,8 18 0,0
13.01.2019 19:00:00 9,5 6,8 8,7 40 21 58 31 WNW 1003,3 20 0,0
13.01.2019 18:00:00 9,7 7,5 9,0 43 23 61 33 W 1003,1 25 0,2
13.01.2019 17:00:00 9,6 7,6 9,0 40 21 58 31 WNW 1003,8 6 0,4
13.01.2019 16:00:00 9,9 7,5 9,4 40 21 65 35 W 1003,5 24 0,0
13.01.2019 15:00:00 9,6 7,8 9,1 40 21 58 31 W 1003,9 21 0,0
13.01.2019 14:00:00 9,7 8,1 9,2 32 18 50 27 W 1004,3 10 0,0
13.01.2019 13:00:00 9,7 8,0 9,2 36 19 47 25 W 1005,4 22 0,0
13.01.2019 12:00:00 9,4 8,1 8,9 32 18 47 25 W 1006,2 11 0,4
13.01.2019 11:00:00 8,9 8,3 8,7 29 16 43 23 W 1007,0 4,0 0,3
13.01.2019 10:00:00 9,5 7,7 9,0 29 16 43 23 W 1007,5 19 0,0
13.01.2019 09:00:00 9,4 7,7 8,9 32 18 47 25 W 1008,0 19 0,0
13.01.2019 08:00:00 9,5 8,0 8,8 29 16 47 25 W 1008,1 17 0,4
13.01.2019 07:00:00 9,1 8,6 8,7 29 16 43 23 W 1008,5 9 1,4
13.01.2019 06:00:00 8,9 8,6 8,6 29 16 40 21 W 1009,0 5 0,3
13.01.2019 05:00:00 8,5 8,3 8,3 18 10 25 14 W 1010,2 9 0,2
13.01.2019 04:00:00 8,2 8,0 8,0 14 8 29 16 W 1011,2 2,7 0,1
13.01.2019 03:00:00 8,2 7,9 7,9 18 10 25 14 W 1011,7 8 0,4
13.01.2019 02:00:00 7,8 7,7 7,7 14 8 25 14 W 1012,3 2,0 0,6
13.01.2019 01:00:00 7,7 7,3 7,6 18 10 29 16 W 1012,7 3,4 0,1
13.01.2019 00:00:00 7,9 6,9 7,6 14 8 29 16 W 1013,0 10 0,0
12.01.2019 23:00:00 8,2 6,5 7,7 18 10 32 18 W 1013,5 18 0,0
12.01.2019 22:00:00 8,2 6,4 7,6 22 12 40 21 WNW 1013,6 21 0,0
12.01.2019 21:00:00 8,1 6,6 7,5 29 16 40 21 WNW 1013,7 11 0,1
12.01.2019 20:00:00 7,9 6,6 7,5 29 16 43 23 WNW 1014,1 11 0,0
12.01.2019 19:00:00 8,0 6,5 7,5 25 14 40 21 W 1014,1 20 0,0
12.01.2019 18:00:00 8,0 6,5 7,4 25 14 36 19 WNW 1014,1 20 0,0
12.01.2019 17:00:00 8,2 6,7 7,6 25 14 54 29 WNW 1014,7 25 0,9
12.01.2019 16:00:00 8,6 6,6 8,1 32 18 50 27 WNW 1014,8 17 0,0
12.01.2019 15:00:00 8,6 7,2 8,1 29 16 50 27 W 1014,6 13 0,2
12.01.2019 14:00:00 8,7 7,2 8,0 32 18 43 23 W 1015,4 22 0,0
12.01.2019 13:00:00 8,1 7,1 7,8 32 18 50 27 W 1016,4 17 0,1
12.01.2019 12:00:00 7,6 7,2 7,3 32 18 47 25 WSW 1017,3 3,3 0,7
12.01.2019 11:00:00 7,0 6,6 6,9 25 14 36 19 WSW 1018,3 2,9 0,4
12.01.2019 10:00:00 7,0 5,4 6,6 25 14 36 19 WSW 1019,1 13 0,0
12.01.2019 09:00:00 6,8 5,0 6,3 25 14 36 19 WSW 1019,9 15 0,0
12.01.2019 08:00:00 6,5 4,6 5,9 22 12 - - SW 1020,4 22 -
12.01.2019 07:00:00 6,2 4,0 5,6 18 10 25 14 SW 1021,2 25 0,0
12.01.2019 06:00:00 6,3 3,5 5,6 18 10 29 16 WSW 1022,1 23 0,0
12.01.2019 05:00:00 6,6 5,1 6,0 18 10 25 14 W 1023,0 11 0,0
12.01.2019 04:00:00 6,5 5,1 5,9 14 8 22 12 W 1023,4 16 0,0
12.01.2019 03:00:00 6,2 5,2 5,6 11 6 18 10 WSW 1024,3 30 0,0
12.01.2019 02:00:00 6,1 5,5 5,4 11 6 22 12 W 1024,7 19 0,0
12.01.2019 01:00:00 6,4 5,7 5,9 18 10 25 14 W 1025,1 9 0,0
12.01.2019 00:00:00 5,6 5,1 4,6 11 6 18 10 W 1025,2 26 0,1
11.01.2019 23:00:00 6,3 5,7 5,9 14 8 22 12 WNW 1025,5 7 0,0
11.01.2019 22:00:00 6,7 5,7 6,2 14 8 25 14 WNW 1025,5 29 0,2
11.01.2019 21:00:00 6,5 6,1 6,3 11 6 29 16 NNW 1025,5 3,7 0,4
11.01.2019 20:00:00 6,6 5,8 6,1 18 10 36 19 NW 1025,4 31 0,0
11.01.2019 19:00:00 7,2 6,5 6,6 18 10 25 14 NW 1025,1 16 0,4
11.01.2019 18:00:00 7,1 6,7 6,9 18 10 36 19 NNW 1024,9 4,6 0,4
11.01.2019 17:00:00 7,3 6,4 6,8 18 10 29 16 NW 1024,7 20 0,0
11.01.2019 16:00:00 7,4 6,6 7,3 22 12 32 18 NW 1024,7 8 0,0
11.01.2019 15:00:00 8,2 6,9 8,1 22 12 36 19 NW 1024,4 23 0,0
11.01.2019 14:00:00 8,0 7,3 8,2 22 12 40 21 NW 1024,5 6 0,1
11.01.2019 13:00:00 8,6 7,2 8,4 22 12 29 16 NW 1024,8 16 0,0
11.01.2019 12:00:00 8,0 7,2 7,8 18 10 25 14 NW 1025,2 17 0,3
11.01.2019 11:00:00 7,3 6,9 7,2 14 8 18 10 NW 1025,3 4,5 0,2
11.01.2019 10:00:00 7,3 6,9 7,0 11 6 18 10 WNW 1025,1 9 0,0
11.01.2019 09:00:00 6,9 6,8 6,5 11 6 14 8 WNW 1025,2 5 0,0
11.01.2019 08:00:00 6,8 6,8 6,6 11 6 14 8 NNW 1024,8 5 0,0
11.01.2019 07:00:00 6,7 6,6 6,3 7 4 11 6 NNW 1024,5 3,7 0,1
11.01.2019 06:00:00 6,2 6,1 6,0 7 4 11 6 WNW 1024,2 0,5 0,2
11.01.2019 05:00:00 5,5 5,4 5,5 7 4 14 8 WSW 1024,4 0,7 0,0
11.01.2019 04:00:00 5,3 5,2 5,2 4 2 18 10 W 1024,6 2,4 0,1
11.01.2019 03:00:00 4,9 4,7 4,8 14 8 18 10 SW 1024,8 1,4 0,2
11.01.2019 02:00:00 4,4 4,3 4,2 14 8 18 10 SW 1025,0 1,0 0,1

tt = Température de l'air
td = dewpoint
tt 5cm = Température de l'air 5cm
ff = Vitesse du vent
fx = gusts
dd = Direction du vent
ppp = reduced air pressure
vv = visibility
rr = Quantités de précipitations

stations d'obs. à proximité